This demonstration page uses our WeatherBlox Daily Observations layout. Learn more.

Left ArrowRight Arrow

36.17497, -115.13722

Hourly Observations for January 12, 2018

Temp ( °F °C ) Dew Point ( °F °C ) Humidity (%) Winds ( mph kmh ) Pressure ( in mb ) Visibility ( mi km ) Precip ( " mm )
12:53 am 00:53 Clear 45 7.2 40 4.4 83 83 SE 3 6 30.28 1025 10 16 N/A
1:53 am 01:53 Clear 46 7.8 39 3.9 77 77 S 3 6 30.28 1025 10 16 N/A
2:53 am 02:53 Clear 45 7.2 39 3.9 80 80 NW 3 6 30.28 1026 10 16 N/A
3:53 am 03:53 Clear 45 7.2 39 3.9 80 80 N N/A 30.28 1025 10 16 N/A
4:53 am 04:53 Clear 43 6.1 39 3.9 86 86 N N/A 30.27 1025 10 16 N/A
5:53 am 05:53 Clear 42 5.6 39 3.9 89 89 NW 3 6 30.29 1026 10 16 N/A
6:53 am 06:53 Sunny 42 5.6 38 3.3 85 85 NW 6 9 30.32 1027 10 16 N/A
7:53 am 07:53 Sunny 46 7.8 39 3.9 77 77 VRB 3 6 30.34 1027 10 16 N/A
8:53 am 08:53 Sunny 49 9.4 40 4.4 71 71 SSE 3 6 30.35 1028 10 16 N/A
9:53 am 09:53 Sunny 52 11.1 41 5 66 66 N N/A 30.35 1028 10 16 N/A
10:53 am 10:53 Sunny 57 13.9 42 5.6 58 58 N N/A 30.33 1027 10 16 N/A
11:53 am 11:53 Sunny 57 13.9 42 5.6 58 58 E 5 7 30.31 1026 10 16 N/A
12:53 pm 12:53 Sunny 60 15.6 41 5 50 50 ESE 5 7 30.28 1025 10 16 N/A
1:53 pm 13:53 Sunny 59 15 40 4.4 49 49 SSE 5 7 30.28 1025 10 16 N/A
2:53 pm 14:53 Sunny 60 15.6 39 3.9 46 46 S 3 6 30.28 1025 10 16 N/A
3:53 pm 15:53 Sunny 62 16.7 39 3.9 43 43 N N/A 30.28 1026 10 16 N/A
4:53 pm 16:53 Clear 60 15.6 40 4.4 47 47 N N/A 30.30 1026 10 16 N/A
5:53 pm 17:53 Clear 56 13.3 41 5 57 57 N N/A 30.32 1027 10 16 N/A
6:53 pm 18:53 Clear 53 11.7 43 6.1 69 69 N 3 6 30.33 1027 10 16 N/A
7:53 pm 19:53 Clear 52 11.1 43 6.1 72 72 N N/A 30.35 1028 10 16 N/A
8:53 pm 20:53 Clear 50 10 43 6.1 77 77 N N/A 30.36 1028 10 16 N/A
9:53 pm 21:53 Clear 50 10 42 5.6 74 74 WSW 5 7 30.37 1029 10 16 N/A
10:53 pm 22:53 Clear 48 8.9 41 5 77 77 NW 9 15 30.36 1028 10 16 N/A
11:53 pm 23:53 Clear 50 10 40 4.4 68 68 SW 3 6 30.36 1028 10 16 N/A

Powered by AerisWeather